39.5°F
Current conditions from King Hill
Updated every 5 minutes
 
  Friday October 31, 2014

Station Historical Data
Daily Summary for March 7, 2011 Units:  Metric    English   Both
« Previous Day
Next Day »
Daily Weekly Monthly Yearly Custom
  High: Low: Average:
Temperature: -6.4 °C -10.6 °C -8 °C
Dew Point: -7.9 °C -12.7 °C -9.7 °C
Humidity: 89% 85% 87%
Wind Speed: 0km/h 0km/h 0km/h
Wind Gust: 0km/h - -
Wind- - North
Pressure: 1028 hPa 1009.4 hPa -
Precipitation: 0 mm    
Historical Graphs
 
 
Tabular Data for March 7, 2011
Time Temperature Dew Point Pressure Wind Wind Speed Wind Gust Humidity Daily Rainfall
00:04 -6.4 °C -7.9 °C 1015.8 hPa Calm     89% 0 mm
00:09 -6.5 °C -8 °C 1015.8 hPa Calm     89% 0 mm
00:14 -6.6 °C -8.1 °C 1015.8 hPa Calm     89% 0 mm
00:19 -6.6 °C -8.1 °C 1015.8 hPa Calm     89% 0 mm
00:24 -6.6 °C -8.1 °C 1015.8 hPa Calm     89% 0 mm
00:29 -6.7 °C -8.2 °C 1015.8 hPa Calm     89% 0 mm
00:34 -6.7 °C -8.2 °C 1015.5 hPa Calm     89% 0 mm
00:39 -6.7 °C -8.2 °C 1015.8 hPa Calm     89% 0 mm
00:44 -6.8 °C -8.3 °C 1015.8 hPa Calm     89% 0 mm
00:49 -6.8 °C -8.3 °C 1015.5 hPa Calm     89% 0 mm
00:54 -6.8 °C -8.3 °C 1015.5 hPa Calm     89% 0 mm
00:59 -6.8 °C -8.3 °C 1015.5 hPa Calm     89% 0 mm
01:04 -6.8 °C -8.3 °C 1015.1 hPa Calm     89% 0 mm
01:09 -6.8 °C -8.3 °C 1015.1 hPa Calm     89% 0 mm
01:14 -6.8 °C -8.3 °C 1014.8 hPa Calm     89% 0 mm
01:19 -6.9 °C -8.4 °C 1014.8 hPa Calm     89% 0 mm
01:24 -6.9 °C -8.6 °C 1014.4 hPa Calm     88% 0 mm
01:30 -7 °C -8.7 °C 1014.4 hPa Calm     88% 0 mm
01:39 -7.1 °C -8.6 °C 1014.4 hPa Calm     89% 0 mm
01:44 -7.1 °C -8.7 °C 1014.1 hPa Calm     88% 0 mm
01:49 -7.1 °C -8.6 °C 1014.4 hPa Calm     89% 0 mm
01:54 -7.2 °C -8.7 °C 1014.4 hPa Calm     89% 0 mm
01:59 -7.2 °C -8.7 °C 1014.1 hPa Calm     89% 0 mm
02:04 -7.2 °C -8.7 °C 1014.1 hPa Calm     89% 0 mm
02:09 -7.2 °C -8.9 °C 1013.8 hPa Calm     88% 0 mm
02:14 -7.3 °C -8.9 °C 1013.8 hPa Calm     88% 0 mm
02:19 -7.3 °C -8.9 °C 1013.4 hPa Calm     88% 0 mm
02:24 -7.3 °C -8.9 °C 1013.1 hPa Calm     88% 0 mm
02:29 -7.3 °C -9 °C 1013.1 hPa Calm     88% 0 mm
02:35 -7.4 °C -9.1 °C 1013.1 hPa Calm     88% 0 mm
02:44 -7.4 °C -9.1 °C 1012.8 hPa Calm     88% 0 mm
02:49 -7.5 °C -9.2 °C 1012.8 hPa Calm     88% 0 mm
02:54 -7.6 °C -9.2 °C 1012.8 hPa Calm     88% 0 mm
02:59 -7.7 °C -9.3 °C 1012.4 hPa Calm     88% 0 mm
03:04 -7.7 °C -9.4 °C 1012.8 hPa Calm     88% 0 mm
03:09 -7.7 °C -9.4 °C 1012.8 hPa Calm     88% 0 mm
03:14 -7.7 °C -9.4 °C 1012.1 hPa Calm     88% 0 mm
03:19 -7.8 °C -9.4 °C 1011.7 hPa Calm     88% 0 mm
03:24 -7.8 °C -9.4 °C 1011.7 hPa Calm     88% 0 mm
03:29 -7.8 °C -9.4 °C 1011.4 hPa Calm     88% 0 mm
03:34 -7.9 °C -9.6 °C 1011.1 hPa Calm     88% 0 mm
03:39 -7.9 °C -9.6 °C 1011.4 hPa Calm     88% 0 mm
03:44 -8 °C -9.6 °C 1011.4 hPa Calm     88% 0 mm
03:49 -8 °C -9.6 °C 1011.4 hPa Calm     88% 0 mm
03:54 -8 °C -9.6 °C 1011.1 hPa Calm     88% 0 mm
03:59 -8 °C -9.6 °C 1011.1 hPa Calm     88% 0 mm
04:04 -8 °C -9.6 °C 1011.4 hPa Calm     88% 0 mm
04:09 -8 °C -9.6 °C 1011.1 hPa Calm     88% 0 mm
04:14 -8 °C -9.6 °C 1011.4 hPa Calm     88% 0 mm
04:19 -8 °C -9.6 °C 1011.4 hPa Calm     88% 0 mm
04:24 -8 °C -9.6 °C 1011.4 hPa Calm     88% 0 mm
04:29 -8.1 °C -9.7 °C 1011.1 hPa Calm     88% 0 mm
04:35 -8.1 °C -9.7 °C 1010.7 hPa Calm     88% 0 mm
04:39 -8.1 °C -9.7 °C 1010 hPa Calm     88% 0 mm
04:44 -8.1 °C -9.7 °C 1010.4 hPa Calm     88% 0 mm
04:49 -8.1 °C -9.7 °C 1010 hPa Calm     88% 0 mm
04:54 -8.2 °C -9.8 °C 1010 hPa Calm     88% 0 mm
04:59 -8.2 °C -9.8 °C 1010.4 hPa Calm     88% 0 mm
05:04 -8.2 °C -9.8 °C 1010 hPa Calm     88% 0 mm
05:09 -8.2 °C -9.8 °C 1010 hPa Calm     88% 0 mm
05:14 -8.2 °C -9.8 °C 1010.4 hPa Calm     88% 0 mm
05:19 -8.2 °C -9.8 °C 1011.1 hPa Calm     88% 0 mm
05:24 -8.2 °C -9.8 °C 1011.1 hPa Calm     88% 0 mm
05:29 -8.2 °C -9.8 °C 1010.7 hPa Calm     88% 0 mm
05:34 -8.2 °C -9.8 °C 1010.7 hPa Calm     88% 0 mm
05:39 -8.1 °C -9.7 °C 1010.7 hPa Calm     88% 0 mm
05:44 -8.1 °C -9.7 °C 1010.7 hPa Calm     88% 0 mm
05:49 -8.1 °C -9.7 °C 1010.7 hPa Calm     88% 0 mm
05:54 -8.1 °C -9.7 °C 1010.7 hPa Calm     88% 0 mm
05:59 -8.1 °C -9.7 °C 1010.7 hPa Calm     88% 0 mm
06:04 -8.2 °C -9.8 °C 1010.4 hPa Calm     88% 0 mm
06:09 -8.2 °C -9.8 °C 1010.4 hPa Calm     88% 0 mm
06:14 -8.2 °C -9.8 °C 1011.1 hPa Calm     88% 0 mm
06:19 -8.2 °C -9.8 °C 1010.4 hPa Calm     88% 0 mm
06:24 -8.2 °C -9.8 °C 1010 hPa Calm     88% 0 mm
06:29 -8.2 °C -9.8 °C 1010 hPa Calm     88% 0 mm
06:34 -8.2 °C -9.8 °C 1010.4 hPa Calm     88% 0 mm
06:39 -8.1 °C -9.7 °C 1010 hPa Calm     88% 0 mm
06:44 -8.1 °C -9.7 °C 1010.7 hPa Calm     88% 0 mm
06:49 -8.1 °C -9.7 °C 1010 hPa Calm     88% 0 mm
06:55 -8 °C -9.6 °C 1009.4 hPa Calm     88% 0 mm
07:04 -7.9 °C -9.6 °C 1010.7 hPa Calm     88% 0 mm
07:09 -7.9 °C -9.6 °C 1010.4 hPa Calm     88% 0 mm
07:14 -7.9 °C -9.6 °C 1010.4 hPa Calm     88% 0 mm
07:19 -7.9 °C -9.6 °C 1010.7 hPa Calm     88% 0 mm
07:24 -8 °C -9.6 °C 1010 hPa Calm     88% 0 mm
07:29 -8 °C -9.6 °C 1010.4 hPa Calm     88% 0 mm
07:34 -8.1 °C -9.7 °C 1010.7 hPa Calm     88% 0 mm
07:39 -8.1 °C -9.7 °C 1011.1 hPa Calm     88% 0 mm
07:44 -8.1 °C -9.7 °C 1010.4 hPa Calm     88% 0 mm
07:49 -8.1 °C -9.7 °C 1009.7 hPa Calm     88% 0 mm
07:55 -8.1 °C -9.7 °C 1010.4 hPa Calm     88% 0 mm
08:04 -8.1 °C -9.7 °C 1009.7 hPa Calm     88% 0 mm
08:09 -8 °C -9.6 °C 1010 hPa Calm     88% 0 mm
08:14 -7.9 °C -9.6 °C 1010.4 hPa Calm     88% 0 mm
08:19 -7.9 °C -9.6 °C 1011.1 hPa Calm     88% 0 mm
08:24 -7.9 °C -9.6 °C 1011.4 hPa Calm     88% 0 mm
08:29 -7.9 °C -9.6 °C 1011.1 hPa Calm     88% 0 mm
08:34 -7.9 °C -9.6 °C 1011.1 hPa Calm     88% 0 mm
08:44 -8.1 °C -9.8 °C 1011.4 hPa Calm     87% 0 mm
08:49 -8.2 °C -10 °C 1011.1 hPa Calm     87% 0 mm
08:54 -8.3 °C -10.1 °C 1010.7 hPa Calm     87% 0 mm
08:59 -8.4 °C -10.2 °C 1011.1 hPa Calm     87% 0 mm
09:04 -8.4 °C -10.2 °C 1010.7 hPa Calm     87% 0 mm
09:09 -8.4 °C -10.2 °C 1010.7 hPa Calm     87% 0 mm
09:14 -8.5 °C -10.3 °C 1010 hPa Calm     87% 0 mm
09:19 -8.4 °C -10.2 °C 1010.4 hPa Calm     87% 0 mm
09:24 -8.4 °C -10.2 °C 1010 hPa Calm     87% 0 mm
09:29 -8.3 °C -10.1 °C 1010 hPa Calm     87% 0 mm
09:34 -8.3 °C -10.1 °C 1010.7 hPa Calm     87% 0 mm
09:39 -8.3 °C -10.1 °C 1011.1 hPa Calm     87% 0 mm
09:44 -8.2 °C -10 °C 1011.1 hPa Calm     87% 0 mm
09:49 -8.2 °C -10 °C 1011.4 hPa Calm     87% 0 mm
09:54 -8.4 °C -10.4 °C 1011.7 hPa Calm     86% 0 mm
10:04 -8.8 °C -10.7 °C 1011.7 hPa Calm     86% 0 mm
10:09 -8.9 °C -10.8 °C 1011.7 hPa Calm     86% 0 mm
10:14 -8.9 °C -10.8 °C 1012.1 hPa Calm     86% 0 mm
10:19 -9.1 °C -10.9 °C 1012.4 hPa Calm     86% 0 mm
10:24 -9.1 °C -11 °C 1012.4 hPa Calm     86% 0 mm
10:30 -9.2 °C -11.1 °C 1012.4 hPa Calm     86% 0 mm
10:39 -9.2 °C -11.1 °C 1012.4 hPa Calm     86% 0 mm
10:44 -9.2 °C -10.9 °C 1012.8 hPa Calm     87% 0 mm
10:49 -9.2 °C -10.9 °C 1012.4 hPa Calm     87% 0 mm
10:54 -9.2 °C -11.1 °C 1012.4 hPa Calm     86% 0 mm
10:59 -9.2 °C -11.1 °C 1012.4 hPa Calm     86% 0 mm
11:04 -9.2 °C -11.1 °C 1012.4 hPa Calm     86% 0 mm
11:09 -9.3 °C -11.2 °C 1012.4 hPa Calm     86% 0 mm
11:14 -9.3 °C -11.2 °C 1012.4 hPa Calm     86% 0 mm
11:19 -9.3 °C -11.2 °C 1012.8 hPa Calm     86% 0 mm
11:24 -9.3 °C -11.2 °C 1013.1 hPa Calm     86% 0 mm
11:29 -9.3 °C -11.2 °C 1013.4 hPa Calm     86% 0 mm
11:34 -9.3 °C -11.2 °C 1013.4 hPa Calm     86% 0 mm
11:39 -9.2 °C -11.1 °C 1013.4 hPa Calm     86% 0 mm
11:44 -9.2 °C -10.9 °C 1013.4 hPa Calm     87% 0 mm
11:49 -9.1 °C -10.8 °C 1013.4 hPa Calm     87% 0 mm
11:54 -8.9 °C -10.7 °C 1013.8 hPa Calm     87% 0 mm
11:59 -8.9 °C -10.7 °C 1013.8 hPa Calm     87% 0 mm
12:04 -8.8 °C -10.6 °C 1013.8 hPa Calm     87% 0 mm
12:09 -8.7 °C -10.5 °C 1013.8 hPa Calm     87% 0 mm
12:14 -8.7 °C -10.4 °C 1013.8 hPa Calm     87% 0 mm
12:19 -8.6 °C -10.3 °C 1013.8 hPa Calm     87% 0 mm
12:24 -8.5 °C -10.3 °C 1014.1 hPa Calm     87% 0 mm
12:29 -8.3 °C -10.1 °C 1014.1 hPa Calm     87% 0 mm
12:35 -8.3 °C -10.1 °C 1014.1 hPa Calm     87% 0 mm
12:39 -8.2 °C -10 °C 1014.4 hPa Calm     87% 0 mm
12:44 -8.2 °C -9.9 °C 1014.4 hPa Calm     87% 0 mm
12:49 -8.1 °C -9.8 °C 1014.4 hPa Calm     87% 0 mm
12:54 -7.9 °C -9.7 °C 1014.8 hPa Calm     87% 0 mm
12:59 -7.8 °C -9.6 °C 1015.1 hPa Calm     87% 0 mm
13:04 -7.7 °C -9.5 °C 1014.8 hPa Calm     87% 0 mm
13:09 -7.6 °C -9.4 °C 1015.1 hPa Calm     87% 0 mm
13:14 -7.6 °C -9.3 °C 1015.5 hPa Calm     87% 0 mm
13:19 -7.6 °C -9.3 °C 1015.5 hPa Calm     87% 0 mm
13:24 -7.6 °C -9.3 °C 1015.5 hPa Calm     87% 0 mm
13:34 -7.6 °C -9.4 °C 1015.8 hPa Calm     87% 0 mm
13:39 -7.7 °C -9.4 °C 1015.8 hPa Calm     87% 0 mm
13:44 -7.6 °C -9.4 °C 1015.8 hPa Calm     87% 0 mm
13:49 -7.6 °C -9.4 °C 1016.1 hPa Calm     87% 0 mm
13:54 -7.7 °C -9.5 °C 1016.1 hPa Calm     87% 0 mm
13:59 -7.7 °C -9.5 °C 1016.1 hPa Calm     87% 0 mm
14:04 -7.8 °C -9.6 °C 1016.5 hPa Calm     87% 0 mm
14:09 -7.7 °C -9.5 °C 1016.5 hPa Calm     87% 0 mm
14:14 -7.7 °C -9.5 °C 1016.5 hPa Calm     87% 0 mm
14:19 -7.7 °C -9.4 °C 1016.8 hPa Calm     87% 0 mm
14:24 -7.6 °C -9.4 °C 1016.8 hPa Calm     87% 0 mm
14:29 -7.5 °C -9.3 °C 1017.2 hPa Calm     87% 0 mm
14:34 -7.4 °C -9.2 °C 1017.2 hPa Calm     87% 0 mm
14:39 -7.3 °C -9.1 °C 1017.5 hPa Calm     87% 0 mm
14:44 -7.3 °C -9.1 °C 1017.5 hPa Calm     87% 0 mm
14:49 -7.3 °C -9.1 °C 1017.5 hPa Calm     87% 0 mm
14:55 -7.2 °C -9 °C 1017.5 hPa Calm     87% 0 mm
15:04 -7.2 °C -8.9 °C 1017.8 hPa Calm     87% 0 mm
15:09 -7.2 °C -9 °C 1018.2 hPa Calm     87% 0 mm
15:14 -7.2 °C -8.9 °C 1018.2 hPa Calm     87% 0 mm
15:19 -7.2 °C -8.9 °C 1018.5 hPa Calm     88% 0 mm
15:24 -7.2 °C -8.9 °C 1018.8 hPa Calm     87% 0 mm
15:29 -7.2 °C -8.8 °C 1018.8 hPa Calm     88% 0 mm
15:35 -7.2 °C -8.8 °C 1019.2 hPa Calm     88% 0 mm
15:39 -7.1 °C -8.8 °C 1019.2 hPa Calm     88% 0 mm
15:44 -7 °C -8.7 °C 1019.2 hPa Calm     88% 0 mm
15:49 -6.9 °C -8.6 °C 1019.5 hPa Calm     88% 0 mm
15:54 -6.8 °C -8.5 °C 1019.5 hPa Calm     88% 0 mm
15:59 -6.8 °C -8.5 °C 1019.5 hPa Calm     88% 0 mm
16:04 -6.8 °C -8.5 °C 1019.5 hPa Calm     88% 0 mm
16:09 -6.8 °C -8.5 °C 1019.9 hPa Calm     88% 0 mm
16:14 -6.8 °C -8.5 °C 1020.2 hPa Calm     88% 0 mm
16:19 -6.8 °C -8.5 °C 1020.2 hPa Calm     88% 0 mm
16:24 -6.8 °C -8.5 °C 1020.2 hPa Calm     88% 0 mm
16:29 -6.8 °C -8.5 °C 1020.5 hPa Calm     88% 0 mm
16:34 -6.8 °C -8.5 °C 1020.5 hPa Calm     88% 0 mm
16:39 -6.8 °C -8.5 °C 1020.5 hPa Calm     88% 0 mm
16:44 -6.8 °C -8.5 °C 1020.5 hPa Calm     88% 0 mm
16:49 -6.9 °C -8.6 °C 1020.9 hPa Calm     88% 0 mm
16:55 -6.9 °C -8.6 °C 1020.9 hPa Calm     88% 0 mm
16:59 -6.9 °C -8.6 °C 1020.9 hPa Calm     88% 0 mm
17:04 -6.9 °C -8.6 °C 1021.2 hPa Calm     88% 0 mm
17:09 -6.9 °C -8.6 °C 1021.2 hPa Calm     88% 0 mm
17:14 -6.9 °C -8.6 °C 1021.2 hPa Calm     88% 0 mm
17:19 -6.9 °C -8.6 °C 1021.6 hPa Calm     88% 0 mm
17:24 -7 °C -8.7 °C 1021.6 hPa Calm     88% 0 mm
17:30 -7 °C -8.7 °C 1021.6 hPa Calm     88% 0 mm
17:34 -7.1 °C -8.7 °C 1021.6 hPa Calm     88% 0 mm
17:39 -7.1 °C -8.7 °C 1021.9 hPa Calm     88% 0 mm
17:44 -7.1 °C -8.8 °C 1021.9 hPa Calm     88% 0 mm
17:49 -7.2 °C -8.8 °C 1022.2 hPa Calm     88% 0 mm
17:54 -7.2 °C -8.8 °C 1022.2 hPa Calm     88% 0 mm
17:59 -7.2 °C -8.9 °C 1022.6 hPa Calm     88% 0 mm
18:04 -7.2 °C -8.9 °C 1022.6 hPa Calm     88% 0 mm
18:09 -7.3 °C -8.9 °C 1022.6 hPa Calm     88% 0 mm
18:14 -7.4 °C -9.2 °C 1022.9 hPa Calm     87% 0 mm
18:19 -7.5 °C -9.3 °C 1022.9 hPa Calm     87% 0 mm
18:24 -7.5 °C -9.3 °C 1022.9 hPa Calm     87% 0 mm
18:29 -7.5 °C -9.2 °C 1023.2 hPa Calm     88% 0 mm
18:34 -7.5 °C -9.2 °C 1023.2 hPa Calm     88% 0 mm
18:39 -7.5 °C -9.2 °C 1023.2 hPa Calm     88% 0 mm
18:44 -7.5 °C -9.2 °C 1023.6 hPa Calm     88% 0 mm
18:49 -7.4 °C -9.1 °C 1023.6 hPa Calm     88% 0 mm
18:54 -7.4 °C -9.1 °C 1023.6 hPa Calm     88% 0 mm
18:59 -7.4 °C -9.1 °C 1023.9 hPa Calm     88% 0 mm
19:04 -7.4 °C -9.1 °C 1023.9 hPa Calm     88% 0 mm
19:09 -7.4 °C -9.1 °C 1023.9 hPa Calm     88% 0 mm
19:14 -7.3 °C -9 °C 1023.9 hPa Calm     88% 0 mm
19:19 -7.3 °C -9 °C 1023.9 hPa Calm     88% 0 mm
19:24 -7.3 °C -8.9 °C 1024.3 hPa Calm     88% 0 mm
19:29 -7.2 °C -8.9 °C 1024.3 hPa Calm     88% 0 mm
19:34 -7.2 °C -8.9 °C 1024.3 hPa Calm     88% 0 mm
19:39 -7.2 °C -8.8 °C 1024.6 hPa Calm     88% 0 mm
19:44 -7.2 °C -8.8 °C 1024.6 hPa Calm     88% 0 mm
19:49 -7.2 °C -8.8 °C 1024.6 hPa Calm     88% 0 mm
19:54 -7.2 °C -8.8 °C 1024.9 hPa Calm     88% 0 mm
19:59 -7.2 °C -9 °C 1024.9 hPa Calm     87% 0 mm
20:04 -7.3 °C -9.1 °C 1024.9 hPa Calm     87% 0 mm
20:09 -7.3 °C -9.1 °C 1025.3 hPa Calm     87% 0 mm
20:14 -7.4 °C -9.2 °C 1025.3 hPa Calm     87% 0 mm
20:19 -7.4 °C -9.2 °C 1025.6 hPa Calm     87% 0 mm
20:24 -7.4 °C -9.2 °C 1025.6 hPa Calm     87% 0 mm
20:30 -7.5 °C -9.3 °C 1025.6 hPa Calm     87% 0 mm
20:35 -7.6 °C -9.3 °C 1025.6 hPa Calm     87% 0 mm
20:39 -7.6 °C -9.3 °C 1026 hPa Calm     87% 0 mm
20:44 -7.7 °C -9.4 °C 1026 hPa Calm     87% 0 mm
20:49 -7.7 °C -9.5 °C 1026 hPa Calm     87% 0 mm
20:55 -7.8 °C -9.6 °C 1026 hPa Calm     87% 0 mm
21:04 -8.1 °C -9.8 °C 1026.3 hPa Calm     87% 0 mm
21:09 -8.2 °C -10.2 °C 1026.3 hPa Calm     86% 0 mm
21:14 -8.4 °C -10.2 °C 1026.3 hPa Calm     87% 0 mm
21:19 -8.6 °C -10.6 °C 1026.3 hPa Calm     86% 0 mm
21:24 -8.8 °C -10.7 °C 1026.3 hPa Calm     86% 0 mm
21:30 -9 °C -10.9 °C 1026.3 hPa Calm     86% 0 mm
21:35 -9.2 °C -11.1 °C 1026.3 hPa Calm     86% 0 mm
21:39 -9.3 °C -11.2 °C 1026.3 hPa Calm     86% 0 mm
21:44 -9.4 °C -11.3 °C 1026.6 hPa Calm     86% 0 mm
21:49 -9.6 °C -11.4 °C 1026.6 hPa Calm     86% 0 mm
21:54 -9.7 °C -11.6 °C 1026.6 hPa Calm     86% 0 mm
21:59 -9.8 °C -11.7 °C 1026.6 hPa Calm     86% 0 mm
22:04 -9.8 °C -11.7 °C 1027 hPa Calm     86% 0 mm
22:09 -9.8 °C -11.7 °C 1027 hPa Calm     86% 0 mm
22:14 -9.8 °C -11.7 °C 1027 hPa Calm     86% 0 mm
22:19 -9.8 °C -11.7 °C 1027 hPa Calm     86% 0 mm
22:24 -9.8 °C -11.7 °C 1027 hPa Calm     86% 0 mm
22:30 -9.8 °C -11.7 °C 1027.3 hPa Calm     86% 0 mm
22:34 -9.7 °C -11.6 °C 1027.3 hPa Calm     86% 0 mm
22:39 -9.7 °C -11.6 °C 1027.3 hPa Calm     86% 0 mm
22:44 -9.8 °C -11.7 °C 1027.3 hPa Calm     86% 0 mm
22:49 -9.8 °C -11.7 °C 1027.3 hPa Calm     86% 0 mm
22:55 -10 °C -11.9 °C 1027.3 hPa Calm     86% 0 mm
22:59 -10.1 °C -12 °C 1027.3 hPa Calm     86% 0 mm
23:04 -10.3 °C -12.2 °C 1027.3 hPa Calm     86% 0 mm
23:09 -10.3 °C -12.2 °C 1027.7 hPa Calm     86% 0 mm
23:14 -10.3 °C -12.2 °C 1027.7 hPa Calm     86% 0 mm
23:19 -10.3 °C -12.2 °C 1027.7 hPa Calm     86% 0 mm
23:24 -10.3 °C -12.2 °C 1027.7 hPa Calm     86% 0 mm
23:29 -10.4 °C -12.3 °C 1027.7 hPa Calm     86% 0 mm
23:34 -10.4 °C -12.3 °C 1027.7 hPa Calm     86% 0 mm
23:39 -10.4 °C -12.3 °C 1028 hPa Calm     86% 0 mm
23:44 -10.4 °C -12.3 °C 1028 hPa Calm     86% 0 mm
23:49 -10.4 °C -12.3 °C 1028 hPa Calm     86% 0 mm
23:54 -10.4 °C -12.3 °C 1028 hPa Calm     86% 0 mm
23:59 -10.6 °C -12.7 °C 1028 hPa Calm     85% 0 mm
Westford Weather
Compliments of Weather Underground

 
 
Current Radar Loop:

Copyright © WestfordWeather.net 2007-2014. All rights reserved.